Regional Weather Roundup
Issued by NWS

Home | Current Version | Previous Version | Text Only | Print | Product List | Glossary Off
Versions: 1 2 3 4 5 6 7 8 9 10 11 12 13 14 15 16 17 18 19 20 21 22 23 24 25 26 27 28 29 30 31 32 33 34 35 36 37 38 39 40 41 42 43 44 45 46 47 48 49 50

000
ASUS43 KLOT 250100
RWRIL

ILLINOIS REGIONAL WEATHER ROUNDUP
NATIONAL WEATHER SERVICE CHICAGO/ROMEOVILLE IL
800 PM CDT SUN MAY 24 2015

NOTE: "FAIR" INDICATES FEW OR NO CLOUDS BELOW 12,000 FEET WITH NO
SIGNIFICANT WEATHER AND/OR OBSTRUCTIONS TO VISIBILITY.

* THESE STATIONS ARE NOT UNDER NWS QUALITY CONTROL. THEY ALSO MAY NOT
  REPORT WEATHER SUCH AS PRECIPITATION OR FOG.

ILZ001-002-007-009-015-016-024-250200-
NORTHWEST ILLINOIS

CITY           SKY/WX    TMP DP  RH WIND       PRES   REMARKS
MOLINE         LGT RAIN  72  67  84 SW6       29.85R
STERLING*      CLOUDY    70  66  88 NW5       29.88R
$$

ILZ003-004-008-010-011-017-018-250200-
NORTH CENTRAL ILLINOIS

CITY           SKY/WX    TMP DP  RH WIND       PRES   REMARKS
ROCKFORD       CLOUDY    66  62  87 E10       29.89F FOG
FREEPORT*      LGT RAIN  65  64  97 E5        29.91R
$$

ILZ005-006-012>014-019>023-250200-
NORTHEAST ILLINOIS

CITY           SKY/WX    TMP DP  RH WIND       PRES   REMARKS
CHICAGO-OHARE  MOCLDY    64  61  90 E7        29.93S
CHICAGO-MIDWAY MOCLDY    66  63  90 E6        29.94R
AURORA         PTCLDY    71  64  78 E10       29.91S
WAUKEGAN       MOCLDY    55  54  96 E5        29.94F FOG
DUPAGE AIRPORT PTCLDY    66  64  93 E7        29.92S FOG
WHEELING       MOCLDY    61  59  93 SE6       29.95S FOG
NORTHERLY ISL    N/A     59  56  89 NE1         N/A
$$

LMZ740>746-250200-
SOUTHERN LAKE MICHIGAN

STATION/POSITION SKY/WX   TEMP    WIND        PRES    VSBY  WAVE
                          AIR SEA DIR/SP/G                  HT/PER
                          (F)     (DEG/KT/KT) (MB)    (MI)  (FT/S)
SOUTHERN BUOY              48 38   40/  6/  8 1015.7F         1
HARRISON CRIB              56      70/  3/  7   N/A
BURNHAM HARBOR             58     330/  1/  6   N/A
CALUMET HARBOR             59      60/  3/  4   N/A
BURNS HARBOR               80     190/ 10/ 16 1014.6
MICHIGAN CITY              81     150/ 12/ 18   N/A
MICHIGAN CITY 6N           60 55   20/  8/ 10   N/A           0
ST. JOSEPH                 63 56  100/  6/  8   N/A           1
$$

ILZ025>027-034>036-040-047-049-050-058-095>099-250200-
WEST-CENTRAL ILLINOIS

CITY           SKY/WX    TMP DP  RH WIND       PRES   REMARKS
QUINCY         RAIN      69  65  86 SW15      29.88R FOG
$$

ILZ028>032-037-038-041>044-048-051>054-059>061-250200-
CENTRAL ILLINOIS

CITY           SKY/WX    TMP DP  RH WIND       PRES   REMARKS
DECATUR        MOCLDY    80  62  54 S17G26    29.93F HX  81
PEORIA         MOCLDY    81  62  52 S14G25    29.88R HX  82
SPRINGFIELD    MOCLDY    80  63  55 S20G28    29.89F HX  81
TAYLORVILLE    NOT AVBL
$$

ILZ033-039-045-046-055>057-062-063-250200-
EAST-CENTRAL ILLINOIS

CITY           SKY/WX    TMP DP  RH WIND       PRES   REMARKS
CHAMPAIGN      MOCLDY    80  61  52 S20G29    29.95F HX  81
MATTOON        MOCLDY    79  62  56 S17       29.96S HX  80
$$

ILZ079-100>102-250200-
SOUTHWEST ILLINOIS

CITY           SKY/WX    TMP DP  RH WIND       PRES   REMARKS
ALTON          MOCLDY    79  64  61 S16       29.91S HX  81
BELLEVILLE     CLOUDY    78  66  65 SE13      29.90S HX  80
CAHOKIA*       CLOUDY    79  65  62 S7        29.90S HX  81
$$

ILZ064>066-069>071-074>076-080>082-084>086-088>090-092>094-250200-
SOUTH-CENTRAL ILLINOIS

CITY           SKY/WX    TMP DP  RH WIND       PRES   REMARKS
CARBONDALE     MOCLDY    80  64  58 SE15      29.94S HX  82
MT. VERNON     MOCLDY    79  63  57 SE12G18   29.98R HX  80
$$

ILZ067-068-072-073-078-083-087-091-250200-
SOUTHEAST ILLINOIS

CITY           SKY/WX    TMP DP  RH WIND       PRES   REMARKS
LAWRENCEVILLE  MOCLDY    79  63  57 SE13      30.01S HX  80
$$

ABBREVIATIONS USED IN REMARKS
   TC - TEMPERATURE IN CELSIUS
  WCI - WIND CHILL INDEX
   HX - HEAT INDEX
  VSB - VISIBILITY
$$




USA.gov is the U.S. government's official web portal to all federal, state and local government web resources and services.